Regional Weather Roundup
Issued by NWS State College, PA

Home | Current Version | Previous Version | Graphics & Text | Print | Product List | Glossary On
Versions: 1 2 3 4 5 6 7 8 9 10 11 12 13 14 15 16 17 18 19 20 21 22 23 24 25 26 27 28 29 30 31 32 33 34 35 36 37 38 39 40 41 42 43 44 45 46 47 48 49 50
000
ASUS41 KCTP 010110
RWRCTP

REGIONAL WEATHER ROUNDUP
NATIONAL WEATHER SERVICE STATE COLLEGE PA
900 PM EDT FRI JUL 31 2015

Note: "fair" indicates few or no clouds below 12,000 feet with no
significant weather and/or obstructions to visibility.

* = STATION THAT DOES NOT REPORT PRECIPITATION /E.G. RAIN...SNOW...ETC/
    THUNDER OR FOG.

PAZ002>004-007>009-013>016-020>023-029>032-010200-
WESTERN PENNSYLVANIA

CITY           SKY/WX    TMP DP  RH WIND       PRES   REMARKS
ERIE           FAIR      74  62  66 CALM      29.83S
MEADVILLE      MOCLDY    75  53  46 SW5       29.87F
FRANKLIN*      MOCLDY    72  54  53 SW3       29.90S
NEW CASTLE     FAIR      73  59  61 CALM      29.89R
BEAVER COUNTY  NOT AVBL
BUTLER*        FAIR      73  55  53 W6        29.91S
PITTSBURGH INT FAIR      78  57  48 SW6       29.90R
PITTSBURGH     FAIR      78  54  43 SW7       29.90S
INDIANA*       CLEAR     73  61  64 CALM      29.93S
LATROBE        PTCLDY    73  61  64 SW7       29.91S
WASHINGTON CO* NOT AVBL
$$

PAZ004>006-010>012-017>019-024>028-033>037-041-042-045-046-049>053-010200-
CENTRAL PENNSYLVANIA

CITY           SKY/WX    TMP DP  RH WIND       PRES   REMARKS
BRADFORD       MOCLDY    71  56  58 W3        29.90R
DUBOIS         FAIR      71  58  63 SW3       29.89S
CLEARFIELD     MOCLDY    74  57  55 SW6       29.89S
JOHNSTOWN      FAIR      71  56  58 W8        29.95S
ALTOONA        CLOUDY    76  58  53 SW6       29.92S
STATE COLLEGE  CLEAR     72  61  68 SW5       29.87S
WILLIAMSPORT   FAIR      79  60  52 NW5       29.81R
SELINSGROVE    FAIR      70  67  90 SW3       29.83S
FT INDIANTOWN  FAIR      76  61  58 SW5       29.84S
CAPITAL CITY   FAIR      79  59  50 W6        29.84S
HARRISBURG     FAIR      82  61  48 SW7       29.83S
YORK           FAIR      71  65  81 CALM      29.86R
$$

PAZ038>040-043-044-047-048-054-055-060>062-067>071-010200-
EASTERN PENNSYLVANIA

CITY           SKY/WX    TMP DP  RH WIND       PRES   REMARKS
SCRANTON       FAIR      77  58  51 CALM      29.84R
MOUNT POCONO   FAIR      69  59  70 W3        29.90R
ALLENTOWN      FAIR      76  60  57 W5        29.83R
QUAKERTOWN*    FAIR      73  64  73 CALM      29.86R
READING        FAIR      79  60  52 W3        29.83R
LANCASTER      FAIR      78  60  53 W5        29.84S
COATESVILLE    FAIR      75  61  60 SW3       29.87S
POTTSTOWN      FAIR      74  62  66 CALM      29.86R
BLUE BELL      FAIR      70  64  83 CALM      29.83S
DOYLESTOWN     FAIR      76  58  53 CALM      29.84R
WILLOW GROVE   NOT AVBL
NORTH PHILA    FAIR      81  54  39 W3        29.84R
PHILADELPHIA   FAIR      83  59  44 W9        29.84R
$$


USA.gov is the U.S. government's official web portal to all federal, state and local government web resources and services.